Time,TemperatureF,DewpointF,PressureIn,WindDirection,WindDirectionDegrees,WindSpeedMPH,WindSpeedGustMPH,Humidity,HourlyPrecipIn,Conditions,Clouds,dailyrainin,SoftwareType,DateUTC
2013-03-09 00:00:00,36.3,33.6,29.67,North,359,0.0,0.0,90,0.00,,,0.00,Weather View 32 v70,2013-03-09 07:00:00,
2013-03-09 00:05:00,36.3,33.6,29.67,North,359,0.0,0.0,90,0.00,,,0.00,Weather View 32 v70,2013-03-09 07:05:00,
2013-03-09 00:10:00,36.3,33.6,29.67,North,359,0.0,0.0,90,0.00,,,0.00,Weather View 32 v70,2013-03-09 07:10:00,
2013-03-09 00:15:00,36.2,33.4,29.67,North,359,0.0,0.0,89,0.00,,,0.00,Weather View 32 v70,2013-03-09 07:15:00,
2013-03-09 00:20:00,36.3,33.4,29.67,North,359,0.0,0.0,89,0.00,,,0.00,Weather View 32 v70,2013-03-09 07:20:00,
2013-03-09 00:25:00,36.2,33.2,29.67,North,359,0.0,0.0,89,0.00,,,0.00,Weather View 32 v70,2013-03-09 07:25:00,
2013-03-09 00:30:00,36.2,33.2,29.65,North,359,0.0,0.0,89,0.00,,,0.00,Weather View 32 v70,2013-03-09 07:30:00,
2013-03-09 00:35:00,36.2,33.1,29.66,North,359,0.0,0.0,88,0.00,,,0.00,Weather View 32 v70,2013-03-09 07:35:00,
2013-03-09 00:40:00,36.4,33.2,29.66,North,359,0.0,0.0,88,0.00,,,0.00,Weather View 32 v70,2013-03-09 07:40:00,
2013-03-09 00:45:00,36.4,33.1,29.66,North,359,0.0,0.0,88,0.00,,,0.00,Weather View 32 v70,2013-03-09 07:45:00,
2013-03-09 00:50:00,36.4,33.1,29.66,North,359,0.0,0.0,88,0.00,,,0.00,Weather View 32 v70,2013-03-09 07:50:00,
2013-03-09 00:55:00,36.4,33.1,29.66,North,359,0.0,0.0,88,0.00,,,0.00,Weather View 32 v70,2013-03-09 07:55:00,
2013-03-09 01:00:00,36.4,33.1,29.66,North,359,0.0,0.0,88,0.00,,,0.00,Weather View 32 v70,2013-03-09 08:00:00,
2013-03-09 01:05:00,36.3,32.9,29.66,North,359,0.0,0.0,87,0.00,,,0.00,Weather View 32 v70,2013-03-09 08:05:00,
2013-03-09 01:10:00,36.3,32.9,29.66,North,359,0.0,0.0,88,0.00,,,0.00,Weather View 32 v70,2013-03-09 08:10:00,
2013-03-09 01:15:00,36.2,32.9,29.66,North,359,0.0,0.0,88,0.00,,,0.00,Weather View 32 v70,2013-03-09 08:15:00,
2013-03-09 01:20:00,36.1,32.8,29.65,North,359,0.0,0.0,88,0.00,,,0.00,Weather View 32 v70,2013-03-09 08:20:00,
2013-03-09 01:25:00,36.0,32.8,29.65,North,359,0.0,0.0,88,0.00,,,0.00,Weather View 32 v70,2013-03-09 08:25:00,
2013-03-09 01:30:00,36.0,32.8,29.65,North,359,0.0,0.0,88,0.00,,,0.00,Weather View 32 v70,2013-03-09 08:30:00,
2013-03-09 01:35:00,35.9,32.7,29.65,North,359,0.0,0.0,88,0.00,,,0.00,Weather View 32 v70,2013-03-09 08:35:00,
2013-03-09 01:40:00,35.9,32.7,29.64,North,359,0.0,0.0,88,0.00,,,0.00,Weather View 32 v70,2013-03-09 08:40:00,
2013-03-09 01:45:00,35.7,32.6,29.64,North,359,0.0,0.0,88,0.00,,,0.00,Weather View 32 v70,2013-03-09 08:45:00,
2013-03-09 01:50:00,35.6,32.6,29.64,North,359,0.0,0.0,89,0.00,,,0.00,Weather View 32 v70,2013-03-09 08:50:00,
2013-03-09 01:55:00,35.4,32.5,29.63,North,359,0.0,0.0,89,0.00,,,0.00,Weather View 32 v70,2013-03-09 08:55:00,
2013-03-09 02:00:00,35.3,32.5,29.63,North,359,0.0,0.0,89,0.00,,,0.00,Weather View 32 v70,2013-03-09 09:00:00,
2013-03-09 02:05:00,35.3,32.5,29.63,North,359,0.0,0.0,89,0.00,,,0.00,Weather View 32 v70,2013-03-09 09:05:00,
2013-03-09 02:10:00,35.3,32.5,29.63,North,359,0.0,0.0,90,0.00,,,0.00,Weather View 32 v70,2013-03-09 09:10:00,
2013-03-09 02:15:00,35.2,32.4,29.63,North,359,0.0,0.0,90,0.00,,,0.00,Weather View 32 v70,2013-03-09 09:15:00,
2013-03-09 02:20:00,35.2,32.5,29.63,North,359,0.0,0.0,90,0.00,,,0.00,Weather View 32 v70,2013-03-09 09:20:00,
2013-03-09 02:25:00,35.2,32.5,29.63,North,359,0.0,0.0,90,0.00,,,0.00,Weather View 32 v70,2013-03-09 09:25:00,
2013-03-09 02:30:00,35.1,32.4,29.63,North,359,0.0,0.0,90,0.00,,,0.00,Weather View 32 v70,2013-03-09 09:30:00,
2013-03-09 02:35:00,35.0,32.3,29.63,North,359,0.0,0.0,90,0.00,,,0.00,Weather View 32 v70,2013-03-09 09:35:00,
2013-03-09 02:40:00,35.0,32.4,29.63,North,359,0.0,0.0,90,0.00,,,0.00,Weather View 32 v70,2013-03-09 09:40:00,
2013-03-09 02:45:00,34.9,32.3,29.63,North,359,0.0,0.0,90,0.00,,,0.00,Weather View 32 v70,2013-03-09 09:45:00,
2013-03-09 02:50:00,34.9,32.3,29.63,North,359,0.0,0.0,90,0.00,,,0.00,Weather View 32 v70,2013-03-09 09:50:00,
2013-03-09 02:55:00,34.9,32.3,29.63,North,359,0.0,0.0,90,0.00,,,0.00,Weather View 32 v70,2013-03-09 09:55:00,
2013-03-09 03:00:00,34.9,32.3,29.63,North,359,0.0,0.0,90,0.00,,,0.00,Weather View 32 v70,2013-03-09 10:00:00,
2013-03-09 03:05:00,34.9,32.3,29.62,North,359,0.0,0.0,90,0.00,,,0.00,Weather View 32 v70,2013-03-09 10:05:00,
2013-03-09 03:10:00,34.9,32.3,29.63,North,359,0.0,0.0,90,0.00,,,0.00,Weather View 32 v70,2013-03-09 10:10:00,
2013-03-09 03:15:00,35.0,32.4,29.64,North,359,0.0,0.0,90,0.00,,,0.00,Weather View 32 v70,2013-03-09 10:15:00,
2013-03-09 03:20:00,35.0,32.3,29.64,North,359,0.0,0.0,90,0.00,,,0.00,Weather View 32 v70,2013-03-09 10:20:00,
2013-03-09 03:25:00,35.1,32.4,29.64,North,359,0.0,0.0,90,0.00,,,0.00,Weather View 32 v70,2013-03-09 10:25:00,
2013-03-09 03:30:00,35.2,32.4,29.64,North,359,0.0,0.0,90,0.00,,,0.00,Weather View 32 v70,2013-03-09 10:30:00,
2013-03-09 03:35:00,35.2,32.4,29.63,North,359,0.0,0.0,90,0.00,,,0.00,Weather View 32 v70,2013-03-09 10:35:00,
2013-03-09 03:40:00,35.3,32.5,29.64,North,359,0.0,0.0,89,0.00,,,0.00,Weather View 32 v70,2013-03-09 10:40:00,
2013-03-09 03:45:00,35.3,32.5,29.64,North,359,0.0,0.0,89,0.00,,,0.00,Weather View 32 v70,2013-03-09 10:45:00,
2013-03-09 03:50:00,35.3,32.5,29.64,North,359,0.0,0.0,89,0.00,,,0.00,Weather View 32 v70,2013-03-09 10:50:00,
2013-03-09 03:55:00,35.2,32.4,29.64,North,359,0.0,0.0,89,0.00,,,0.00,Weather View 32 v70,2013-03-09 10:55:00,
2013-03-09 04:00:00,35.2,32.4,29.64,North,359,0.0,0.0,89,0.00,,,0.00,Weather View 32 v70,2013-03-09 11:00:00,
2013-03-09 04:05:00,35.2,32.4,29.63,North,359,0.0,0.0,89,0.00,,,0.00,Weather View 32 v70,2013-03-09 11:05:00,
2013-03-09 04:10:00,35.3,32.5,29.63,North,359,0.0,0.0,89,0.00,,,0.00,Weather View 32 v70,2013-03-09 11:10:00,
2013-03-09 04:15:00,35.3,32.5,29.64,North,359,0.0,0.0,89,0.00,,,0.00,Weather View 32 v70,2013-03-09 11:15:00,
2013-03-09 04:20:00,35.3,32.6,29.64,North,359,0.0,0.0,90,0.00,,,0.00,Weather View 32 v70,2013-03-09 11:20:00,
2013-03-09 04:25:00,35.3,32.7,29.64,North,359,0.0,0.0,90,0.00,,,0.00,Weather View 32 v70,2013-03-09 11:25:00,
2013-03-09 04:30:00,35.3,32.9,29.64,North,359,0.0,0.0,91,0.00,,,0.00,Weather View 32 v70,2013-03-09 11:30:00,
2013-03-09 04:35:00,35.2,32.8,29.64,North,359,0.0,0.0,91,0.00,,,0.00,Weather View 32 v70,2013-03-09 11:35:00,
2013-03-09 04:40:00,35.1,32.9,29.64,North,359,0.0,0.0,92,0.00,,,0.00,Weather View 32 v70,2013-03-09 11:40:00,
2013-03-09 04:45:00,34.9,33.0,29.64,North,359,0.0,0.0,93,0.00,,,0.00,Weather View 32 v70,2013-03-09 11:45:00,
2013-03-09 04:50:00,34.7,33.0,29.64,North,359,0.0,0.0,94,0.00,,,0.00,Weather View 32 v70,2013-03-09 11:50:00,
2013-03-09 04:55:00,34.4,33.1,29.64,North,359,0.0,0.0,95,0.00,,,0.00,Weather View 32 v70,2013-03-09 11:55:00,
2013-03-09 05:00:00,34.1,32.9,29.64,North,359,0.0,0.0,96,0.00,,,0.00,Weather View 32 v70,2013-03-09 12:00:00,
2013-03-09 05:05:00,33.9,32.9,29.64,North,359,0.0,0.0,96,0.00,,,0.00,Weather View 32 v70,2013-03-09 12:05:00,
2013-03-09 05:10:00,33.7,32.8,29.64,North,359,0.0,0.0,97,0.00,,,0.00,Weather View 32 v70,2013-03-09 12:10:00,
2013-03-09 05:15:00,33.5,32.7,29.64,North,359,0.0,0.0,97,0.00,,,0.00,Weather View 32 v70,2013-03-09 12:15:00,
2013-03-09 05:20:00,33.3,32.6,29.65,North,359,0.0,0.0,97,0.00,,,0.00,Weather View 32 v70,2013-03-09 12:20:00,
2013-03-09 05:25:00,33.2,32.6,29.65,North,359,0.0,0.0,98,0.00,,,0.00,Weather View 32 v70,2013-03-09 12:25:00,
2013-03-09 05:30:00,33.1,32.5,29.65,North,359,0.0,0.0,98,0.00,,,0.00,Weather View 32 v70,2013-03-09 12:30:00,
2013-03-09 05:35:00,33.0,32.5,29.65,North,359,0.0,0.0,98,0.00,,,0.00,Weather View 32 v70,2013-03-09 12:35:00,
2013-03-09 05:40:00,33.0,32.6,29.66,North,359,0.0,0.0,98,0.00,,,0.00,Weather View 32 v70,2013-03-09 12:40:00,
2013-03-09 05:45:00,33.0,32.6,29.66,North,359,0.0,0.0,99,0.00,,,0.00,Weather View 32 v70,2013-03-09 12:45:00,
2013-03-09 05:50:00,32.9,32.5,29.66,North,359,0.0,0.0,99,0.00,,,0.00,Weather View 32 v70,2013-03-09 12:50:00,
2013-03-09 05:55:00,32.9,32.6,29.66,North,359,0.0,0.0,99,0.00,,,0.00,Weather View 32 v70,2013-03-09 12:55:00,
2013-03-09 06:00:00,32.8,32.5,29.66,North,359,0.0,0.0,99,0.00,,,0.00,Weather View 32 v70,2013-03-09 13:00:00,
2013-03-09 06:05:00,32.8,32.5,29.67,North,359,0.0,0.0,99,0.00,,,0.00,Weather View 32 v70,2013-03-09 13:05:00,
2013-03-09 06:10:00,32.7,32.5,29.67,North,359,0.0,0.0,99,0.00,,,0.00,Weather View 32 v70,2013-03-09 13:10:00,
2013-03-09 06:15:00,32.6,32.4,29.67,North,359,0.0,0.0,99,0.00,,,0.00,Weather View 32 v70,2013-03-09 13:15:00,
2013-03-09 06:20:00,32.6,32.4,29.67,North,359,0.0,0.0,99,0.00,,,0.00,Weather View 32 v70,2013-03-09 13:20:00,
2013-03-09 06:25:00,32.6,32.4,29.67,North,359,0.0,0.0,99,0.00,,,0.00,Weather View 32 v70,2013-03-09 13:25:00,
2013-03-09 06:30:00,32.6,32.5,29.68,North,359,0.0,0.0,99,0.00,,,0.00,Weather View 32 v70,2013-03-09 13:30:00,
2013-03-09 06:35:00,32.5,32.4,29.68,North,359,0.0,0.0,100,0.00,,,0.00,Weather View 32 v70,2013-03-09 13:35:00,
2013-03-09 06:40:00,32.5,32.4,29.68,North,359,0.0,0.0,100,0.00,,,0.00,Weather View 32 v70,2013-03-09 13:40:00,
2013-03-09 06:45:00,32.5,32.4,29.69,North,359,0.0,0.0,100,0.00,,,0.00,Weather View 32 v70,2013-03-09 13:45:00,
2013-03-09 06:50:00,32.5,32.5,29.68,North,359,0.0,0.0,100,0.00,,,0.00,Weather View 32 v70,2013-03-09 13:50:00,
2013-03-09 06:55:00,32.6,32.5,29.69,North,359,0.0,0.0,100,0.00,,,0.00,Weather View 32 v70,2013-03-09 13:55:00,
2013-03-09 07:00:00,32.6,32.6,29.69,North,359,0.0,0.0,100,0.00,,,0.00,Weather View 32 v70,2013-03-09 14:00:00,
2013-03-09 07:05:00,32.6,32.6,29.69,North,359,0.0,0.0,100,0.00,,,0.00,Weather View 32 v70,2013-03-09 14:05:00,
2013-03-09 07:10:00,32.6,32.6,29.69,North,359,0.0,0.0,100,0.00,,,0.00,Weather View 32 v70,2013-03-09 14:10:00,
2013-03-09 07:15:00,32.7,32.7,29.69,North,359,0.0,0.0,100,0.00,,,0.00,Weather View 32 v70,2013-03-09 14:15:00,
2013-03-09 07:20:00,32.7,32.7,29.69,North,359,0.0,0.0,100,0.00,,,0.00,Weather View 32 v70,2013-03-09 14:20:00,
2013-03-09 07:25:00,32.8,32.8,29.70,North,359,0.0,0.0,100,0.00,,,0.00,Weather View 32 v70,2013-03-09 14:25:00,
2013-03-09 07:30:00,32.8,32.8,29.69,North,359,0.0,0.0,100,0.00,,,0.00,Weather View 32 v70,2013-03-09 14:30:00,
2013-03-09 07:35:00,32.7,32.7,29.70,North,359,0.0,0.0,100,0.00,,,0.00,Weather View 32 v70,2013-03-09 14:35:00,
2013-03-09 07:40:00,32.7,32.7,29.70,North,359,0.0,0.0,100,0.00,,,0.00,Weather View 32 v70,2013-03-09 14:40:00,
2013-03-09 07:45:00,32.7,32.7,29.70,North,359,0.0,0.0,100,0.00,,,0.00,Weather View 32 v70,2013-03-09 14:45:00,
2013-03-09 07:50:00,32.7,32.7,29.70,North,359,0.0,0.0,100,0.00,,,0.00,Weather View 32 v70,2013-03-09 14:50:00,
2013-03-09 07:55:00,32.7,32.7,29.70,North,359,0.0,0.0,100,0.00,,,0.00,Weather View 32 v70,2013-03-09 14:55:00,
2013-03-09 08:00:00,32.7,32.7,29.70,North,359,0.0,0.0,100,0.00,,,0.00,Weather View 32 v70,2013-03-09 15:00:00,
2013-03-09 08:05:00,32.7,32.7,29.71,North,359,0.0,0.0,100,0.00,,,0.00,Weather View 32 v70,2013-03-09 15:05:00,
2013-03-09 08:10:00,32.7,32.7,29.70,North,359,0.0,0.0,100,0.00,,,0.00,Weather View 32 v70,2013-03-09 15:10:00,
2013-03-09 08:15:00,32.7,32.7,29.71,North,359,0.0,0.0,100,0.00,,,0.00,Weather View 32 v70,2013-03-09 15:15:00,
2013-03-09 08:20:00,32.8,32.8,29.71,North,359,0.0,0.0,100,0.00,,,0.00,Weather View 32 v70,2013-03-09 15:20:00,
2013-03-09 08:25:00,32.8,32.8,29.71,North,359,0.0,0.0,100,0.00,,,0.00,Weather View 32 v70,2013-03-09 15:25:00,
2013-03-09 08:30:00,32.8,32.8,29.72,North,359,0.0,0.0,100,0.00,,,0.00,Weather View 32 v70,2013-03-09 15:30:00,
2013-03-09 08:35:00,32.8,32.8,29.72,North,359,0.0,0.0,100,0.00,,,0.00,Weather View 32 v70,2013-03-09 15:35:00,
2013-03-09 08:40:00,32.7,32.7,29.72,North,359,0.0,0.0,100,0.00,,,0.00,Weather View 32 v70,2013-03-09 15:40:00,
2013-03-09 08:45:00,32.7,32.7,29.72,North,359,0.0,0.0,100,0.00,,,0.00,Weather View 32 v70,2013-03-09 15:45:00,
2013-03-09 08:50:00,32.8,32.8,29.72,North,359,0.0,0.0,100,0.00,,,0.00,Weather View 32 v70,2013-03-09 15:50:00,
2013-03-09 08:55:00,32.7,32.7,29.72,North,359,0.0,0.0,100,0.00,,,0.00,Weather View 32 v70,2013-03-09 15:55:00,
2013-03-09 09:00:00,32.7,32.7,29.73,North,359,0.0,0.0,100,0.00,,,0.00,Weather View 32 v70,2013-03-09 16:00:00,
2013-03-09 09:05:00,32.7,32.7,29.73,North,359,0.0,0.0,100,0.00,,,0.00,Weather View 32 v70,2013-03-09 16:05:00,
2013-03-09 09:10:00,32.5,32.5,29.73,North,359,0.0,1.0,100,0.00,,,0.00,Weather View 32 v70,2013-03-09 16:10:00,
2013-03-09 09:15:00,32.5,32.5,29.73,North,359,0.0,1.0,100,0.00,,,0.00,Weather View 32 v70,2013-03-09 16:15:00,
2013-03-09 09:20:00,32.5,32.5,29.74,NNE,21,1.0,2.0,100,0.00,,,0.00,Weather View 32 v70,2013-03-09 16:20:00,
2013-03-09 09:25:00,32.4,32.4,29.74,NNE,21,0.0,12.0,100,0.00,,,0.00,Weather View 32 v70,2013-03-09 16:25:00,
2013-03-09 09:30:00,32.4,32.4,29.74,NNE,21,0.0,12.0,100,0.00,,,0.00,Weather View 32 v70,2013-03-09 16:30:00,
2013-03-09 09:35:00,32.5,32.5,29.75,North,359,0.0,12.0,100,0.00,,,0.00,Weather View 32 v70,2013-03-09 16:35:00,
2013-03-09 09:40:00,32.5,32.5,29.74,North,359,0.0,12.0,100,0.00,,,0.00,Weather View 32 v70,2013-03-09 16:40:00,
2013-03-09 09:45:00,32.5,32.5,29.75,SSW,207,0.0,12.0,100,0.00,,,0.00,Weather View 32 v70,2013-03-09 16:45:00,
2013-03-09 09:50:00,32.5,32.5,29.75,SSW,207,0.0,12.0,100,0.00,,,0.00,Weather View 32 v70,2013-03-09 16:50:00,
2013-03-09 09:55:00,32.5,32.5,29.75,SSW,207,0.0,12.0,100,0.00,,,0.00,Weather View 32 v70,2013-03-09 16:55:00,
2013-03-09 10:00:00,32.5,32.5,29.75,North,359,0.0,12.0,100,0.00,,,0.00,Weather View 32 v70,2013-03-09 17:00:00,
2013-03-09 10:05:00,32.5,32.5,29.76,North,359,0.0,12.0,100,0.00,,,0.00,Weather View 32 v70,2013-03-09 17:05:00,
2013-03-09 10:10:00,32.5,32.5,29.76,North,359,0.0,12.0,100,0.00,,,0.00,Weather View 32 v70,2013-03-09 17:10:00,
2013-03-09 10:15:00,32.6,32.6,29.76,North,359,0.0,12.0,100,0.00,,,0.00,Weather View 32 v70,2013-03-09 17:15:00,
2013-03-09 10:20:00,32.7,32.7,29.76,North,359,0.0,12.0,100,0.00,,,0.00,Weather View 32 v70,2013-03-09 17:20:00,
2013-03-09 10:25:00,32.7,32.7,29.76,North,359,0.0,3.0,100,0.00,,,0.00,Weather View 32 v70,2013-03-09 17:25:00,
2013-03-09 10:30:00,32.7,32.7,29.76,North,359,0.0,3.0,100,0.00,,,0.00,Weather View 32 v70,2013-03-09 17:30:00,
2013-03-09 10:35:00,32.7,32.7,29.76,NE,39,0.0,4.0,100,0.00,,,0.00,Weather View 32 v70,2013-03-09 17:35:00,
2013-03-09 10:40:00,32.6,32.6,29.76,NE,39,0.0,4.0,100,0.00,,,0.00,Weather View 32 v70,2013-03-09 17:40:00,
2013-03-09 10:45:00,32.7,32.7,29.76,North,359,0.0,4.0,100,0.00,,,0.00,Weather View 32 v70,2013-03-09 17:45:00,
2013-03-09 10:50:00,32.8,32.8,29.76,North,359,0.0,4.0,100,0.00,,,0.00,Weather View 32 v70,2013-03-09 17:50:00,
2013-03-09 10:55:00,32.9,32.9,29.76,North,359,0.0,4.0,100,0.00,,,0.00,Weather View 32 v70,2013-03-09 17:55:00,
2013-03-09 11:00:00,33.0,33.0,29.77,North,359,0.0,4.0,100,0.00,,,0.00,Weather View 32 v70,2013-03-09 18:00:00,
2013-03-09 11:05:00,33.2,33.1,29.77,North,359,0.0,4.0,100,0.00,,,0.00,Weather View 32 v70,2013-03-09 18:05:00,
2013-03-09 11:10:00,33.1,33.0,29.77,North,359,0.0,4.0,100,0.00,,,0.00,Weather View 32 v70,2013-03-09 18:10:00,
2013-03-09 11:15:00,33.2,33.1,29.77,North,359,0.0,4.0,100,0.00,,,0.00,Weather View 32 v70,2013-03-09 18:15:00,
2013-03-09 11:20:00,33.2,33.1,29.77,North,359,0.0,4.0,100,0.00,,,0.00,Weather View 32 v70,2013-03-09 18:20:00,
2013-03-09 11:25:00,33.3,33.2,29.77,North,359,0.0,4.0,100,0.00,,,0.00,Weather View 32 v70,2013-03-09 18:25:00,
2013-03-09 11:30:00,33.4,33.3,29.77,North,359,0.0,4.0,100,0.00,,,0.00,Weather View 32 v70,2013-03-09 18:30:00,
2013-03-09 11:35:00,33.4,33.2,29.77,North,359,0.0,4.0,99,0.00,,,0.00,Weather View 32 v70,2013-03-09 18:35:00,
2013-03-09 11:40:00,33.3,33.1,29.78,North,359,0.0,4.0,99,0.00,,,0.00,Weather View 32 v70,2013-03-09 18:40:00,
2013-03-09 11:45:00,33.1,32.9,29.78,North,359,0.0,4.0,99,0.00,,,0.00,Weather View 32 v70,2013-03-09 18:45:00,
2013-03-09 11:50:00,33.1,33.0,29.78,North,359,0.0,4.0,99,0.00,,,0.00,Weather View 32 v70,2013-03-09 18:50:00,
2013-03-09 11:55:00,33.0,32.8,29.77,North,359,0.0,0.0,99,0.01,,,0.01,Weather View 32 v70,2013-03-09 18:55:00,
2013-03-09 12:00:00,32.9,32.7,29.78,North,359,0.0,1.0,99,0.01,,,0.01,Weather View 32 v70,2013-03-09 19:00:00,
2013-03-09 12:05:00,32.7,32.5,29.78,North,359,0.0,1.0,99,0.02,,,0.02,Weather View 32 v70,2013-03-09 19:05:00,
2013-03-09 12:10:00,32.5,32.3,29.78,North,359,0.0,7.0,99,0.02,,,0.02,Weather View 32 v70,2013-03-09 19:10:00,
2013-03-09 12:15:00,32.4,32.2,29.78,North,359,0.0,7.0,99,0.03,,,0.03,Weather View 32 v70,2013-03-09 19:15:00,
2013-03-09 12:20:00,32.3,32.1,29.78,NNE,17,0.0,7.0,99,0.03,,,0.03,Weather View 32 v70,2013-03-09 19:20:00,
2013-03-09 12:25:00,32.3,32.1,29.78,North,359,1.0,7.0,99,0.03,,,0.03,Weather View 32 v70,2013-03-09 19:25:00,
2013-03-09 12:30:00,32.3,32.1,29.78,ENE,59,0.0,12.0,99,0.04,,,0.04,Weather View 32 v70,2013-03-09 19:30:00,
2013-03-09 12:35:00,32.2,32.0,29.78,NE,41,3.0,12.0,99,0.04,,,0.04,Weather View 32 v70,2013-03-09 19:35:00,
2013-03-09 12:40:00,32.1,31.9,29.79,North,359,0.0,12.0,99,0.05,,,0.05,Weather View 32 v70,2013-03-09 19:40:00,
2013-03-09 12:45:00,32.1,31.9,29.79,North,359,0.0,12.0,99,0.05,,,0.05,Weather View 32 v70,2013-03-09 19:45:00,
2013-03-09 12:50:00,32.0,31.8,29.79,ENE,72,0.0,12.0,99,0.05,,,0.05,Weather View 32 v70,2013-03-09 19:50:00,
2013-03-09 12:55:00,32.0,31.8,29.79,ENE,72,0.0,12.0,99,0.04,,,0.05,Weather View 32 v70,2013-03-09 19:55:00,
2013-03-09 13:00:00,31.8,31.6,29.80,NNE,28,0.0,12.0,99,0.05,,,0.06,Weather View 32 v70,2013-03-09 20:00:00,
2013-03-09 13:05:00,31.5,31.3,29.79,NNE,28,0.0,12.0,99,0.04,,,0.06,Weather View 32 v70,2013-03-09 20:05:00,
2013-03-09 13:10:00,31.0,30.8,29.80,WSW,239,0.0,12.0,99,0.04,,,0.06,Weather View 32 v70,2013-03-09 20:10:00,
2013-03-09 13:15:00,30.8,30.6,29.80,WSW,239,0.0,12.0,99,0.03,,,0.06,Weather View 32 v70,2013-03-09 20:15:00,
2013-03-09 13:20:00,30.8,30.6,29.80,WSW,239,0.0,12.0,99,0.04,,,0.07,Weather View 32 v70,2013-03-09 20:20:00,
2013-03-09 13:25:00,30.7,30.5,29.80,WSW,239,0.0,12.0,99,0.04,,,0.07,Weather View 32 v70,2013-03-09 20:25:00,
2013-03-09 13:30:00,30.5,30.3,29.80,WSW,239,0.0,9.0,99,0.03,,,0.07,Weather View 32 v70,2013-03-09 20:30:00,
2013-03-09 13:35:00,30.5,30.3,29.80,WSW,239,0.0,9.0,99,0.03,,,0.07,Weather View 32 v70,2013-03-09 20:35:00,
2013-03-09 13:40:00,30.5,30.3,29.80,WSW,239,0.0,9.0,99,0.02,,,0.07,Weather View 32 v70,2013-03-09 20:40:00,
2013-03-09 13:45:00,30.5,30.3,29.81,WSW,239,0.0,9.0,99,0.02,,,0.07,Weather View 32 v70,2013-03-09 20:45:00,
2013-03-09 13:50:00,30.4,30.2,29.81,NE,52,0.0,9.0,99,0.03,,,0.08,Weather View 32 v70,2013-03-09 20:50:00,
2013-03-09 13:55:00,30.4,30.2,29.82,NE,52,0.0,9.0,99,0.03,,,0.08,Weather View 32 v70,2013-03-09 20:55:00,
2013-03-09 14:00:00,30.4,30.2,29.82,North,359,0.0,10.0,99,0.02,,,0.08,Weather View 32 v70,2013-03-09 21:00:00,
2013-03-09 14:05:00,30.3,30.1,29.82,ENE,73,0.0,10.0,99,0.02,,,0.08,Weather View 32 v70,2013-03-09 21:05:00,
2013-03-09 14:10:00,30.1,29.9,29.83,NNW,329,3.0,10.0,99,0.02,,,0.08,Weather View 32 v70,2013-03-09 21:10:00,
2013-03-09 14:15:00,29.9,29.7,29.83,NNW,329,0.0,10.0,99,0.02,,,0.08,Weather View 32 v70,2013-03-09 21:15:00,
2013-03-09 14:20:00,29.9,29.7,29.83,NE,46,0.0,10.0,99,0.01,,,0.08,Weather View 32 v70,2013-03-09 21:20:00,
2013-03-09 14:25:00,30.0,29.8,29.83,NE,46,0.0,10.0,99,0.01,,,0.08,Weather View 32 v70,2013-03-09 21:25:00,
2013-03-09 14:30:00,30.1,29.9,29.83,West,280,0.0,10.0,99,0.02,,,0.09,Weather View 32 v70,2013-03-09 21:30:00,
2013-03-09 14:35:00,30.1,29.9,29.83,East,98,0.0,10.0,99,0.02,,,0.09,Weather View 32 v70,2013-03-09 21:35:00,
2013-03-09 14:40:00,30.1,29.9,29.83,North,359,0.0,10.0,99,0.02,,,0.09,Weather View 32 v70,2013-03-09 21:40:00,
2013-03-09 14:45:00,30.2,30.0,29.83,ENE,76,5.0,10.0,99,0.02,,,0.09,Weather View 32 v70,2013-03-09 21:45:00,
2013-03-09 14:50:00,30.2,30.0,29.84,ENE,59,0.0,10.0,99,0.01,,,0.09,Weather View 32 v70,2013-03-09 21:50:00,
2013-03-09 14:55:00,30.3,30.1,29.84,ENE,59,0.0,10.0,99,0.01,,,0.09,Weather View 32 v70,2013-03-09 21:55:00,
2013-03-09 15:00:00,30.3,30.1,29.84,ENE,59,0.0,10.0,99,0.01,,,0.09,Weather View 32 v70,2013-03-09 22:00:00,
2013-03-09 15:05:00,30.2,30.0,29.84,ENE,59,0.0,10.0,99,0.01,,,0.09,Weather View 32 v70,2013-03-09 22:05:00,
2013-03-09 15:10:00,30.3,30.0,29.84,ENE,59,0.0,5.0,99,0.01,,,0.09,Weather View 32 v70,2013-03-09 22:10:00,
2013-03-09 15:15:00,30.2,29.9,29.85,NNW,342,0.0,5.0,99,0.02,,,0.10,Weather View 32 v70,2013-03-09 22:15:00,
2013-03-09 15:20:00,30.1,29.8,29.85,West,260,0.0,5.0,99,0.02,,,0.10,Weather View 32 v70,2013-03-09 22:20:00,
2013-03-09 15:25:00,30.0,29.8,29.85,NNE,23,4.0,5.0,99,0.02,,,0.10,Weather View 32 v70,2013-03-09 22:25:00,
2013-03-09 15:30:00,29.9,29.7,29.85,North,359,0.0,5.0,99,0.01,,,0.10,Weather View 32 v70,2013-03-09 22:30:00,
2013-03-09 15:35:00,29.9,29.7,29.85,North,359,0.0,5.0,99,0.01,,,0.10,Weather View 32 v70,2013-03-09 22:35:00,
2013-03-09 15:40:00,29.9,29.6,29.85,NNW,338,0.0,5.0,99,0.01,,,0.10,Weather View 32 v70,2013-03-09 22:40:00,
2013-03-09 15:45:00,29.9,29.6,29.85,NNW,338,0.0,5.0,99,0.01,,,0.10,Weather View 32 v70,2013-03-09 22:45:00,
2013-03-09 15:50:00,30.0,29.7,29.86,NNW,338,0.0,5.0,99,0.01,,,0.10,Weather View 32 v70,2013-03-09 22:50:00,
2013-03-09 15:55:00,30.1,29.8,29.86,NNW,338,0.0,5.0,99,0.01,,,0.10,Weather View 32 v70,2013-03-09 22:55:00,
2013-03-09 16:00:00,30.0,29.7,29.86,NNW,338,0.0,5.0,99,0.01,,,0.10,Weather View 32 v70,2013-03-09 23:00:00,
2013-03-09 16:05:00,30.1,29.9,29.86,NNW,338,0.0,5.0,99,0.01,,,0.10,Weather View 32 v70,2013-03-09 23:05:00,
2013-03-09 16:10:00,30.1,29.9,29.86,NNW,338,0.0,5.0,99,0.01,,,0.10,Weather View 32 v70,2013-03-09 23:10:00,
2013-03-09 16:15:00,30.1,29.9,29.86,NNW,338,0.0,5.0,99,0.00,,,0.10,Weather View 32 v70,2013-03-09 23:15:00,
2013-03-09 16:20:00,30.1,29.9,29.87,NNW,338,0.0,5.0,99,0.01,,,0.11,Weather View 32 v70,2013-03-09 23:20:00,
2013-03-09 16:25:00,30.1,29.9,29.87,NNW,338,0.0,5.0,99,0.01,,,0.11,Weather View 32 v70,2013-03-09 23:25:00,
2013-03-09 16:30:00,30.0,29.8,29.87,NNW,338,0.0,5.0,99,0.01,,,0.11,Weather View 32 v70,2013-03-09 23:30:00,
2013-03-09 16:35:00,30.0,29.8,29.87,NNW,338,0.0,1.0,99,0.01,,,0.11,Weather View 32 v70,2013-03-09 23:35:00,
2013-03-09 16:40:00,30.1,30.0,29.88,NNW,338,0.0,1.0,99,0.01,,,0.11,Weather View 32 v70,2013-03-09 23:40:00,
2013-03-09 16:45:00,30.2,30.1,29.88,NNW,338,0.0,0.0,99,0.01,,,0.11,Weather View 32 v70,2013-03-09 23:45:00,
2013-03-09 16:50:00,30.3,30.2,29.88,NNW,338,0.0,0.0,100,0.01,,,0.11,Weather View 32 v70,2013-03-09 23:50:00,
2013-03-09 16:55:00,30.3,30.2,29.89,NNW,338,0.0,0.0,100,0.01,,,0.11,Weather View 32 v70,2013-03-09 23:55:00,
2013-03-09 17:00:00,30.3,30.2,29.89,NNW,338,0.0,0.0,100,0.01,,,0.11,Weather View 32 v70,2013-03-10 00:00:00,
2013-03-09 17:05:00,30.5,30.4,29.89,NNW,338,0.0,0.0,100,0.01,,,0.11,Weather View 32 v70,2013-03-10 00:05:00,
2013-03-09 17:10:00,30.6,30.5,29.90,NNW,338,0.0,0.0,100,0.01,,,0.11,Weather View 32 v70,2013-03-10 00:10:00,
2013-03-09 17:15:00,30.6,30.5,29.90,NNW,338,0.0,0.0,100,0.01,,,0.11,Weather View 32 v70,2013-03-10 00:15:00,
2013-03-09 17:20:00,30.6,30.5,29.90,NNW,338,0.0,0.0,99,0.00,,,0.11,Weather View 32 v70,2013-03-10 00:20:00,
2013-03-09 17:25:00,30.5,30.4,29.90,NNW,338,0.0,0.0,99,0.00,,,0.11,Weather View 32 v70,2013-03-10 00:25:00,
2013-03-09 17:30:00,30.4,30.3,29.90,NNW,338,0.0,0.0,99,0.00,,,0.11,Weather View 32 v70,2013-03-10 00:30:00,
2013-03-09 17:35:00,30.4,30.2,29.91,NNW,338,0.0,0.0,99,0.00,,,0.11,Weather View 32 v70,2013-03-10 00:35:00,
2013-03-09 17:40:00,30.4,30.2,29.91,NNW,338,0.0,0.0,99,0.00,,,0.11,Weather View 32 v70,2013-03-10 00:40:00,
2013-03-09 17:45:00,30.3,30.1,29.92,NNW,338,0.0,0.0,99,0.00,,,0.11,Weather View 32 v70,2013-03-10 00:45:00,
2013-03-09 17:50:00,30.2,30.0,29.92,NNW,338,0.0,0.0,99,0.00,,,0.11,Weather View 32 v70,2013-03-10 00:50:00,
2013-03-09 17:55:00,30.2,29.9,29.92,NNW,338,0.0,0.0,99,0.00,,,0.11,Weather View 32 v70,2013-03-10 00:55:00,
2013-03-09 18:00:00,30.2,29.8,29.92,NNW,338,0.0,0.0,98,0.00,,,0.11,Weather View 32 v70,2013-03-10 01:00:00,
2013-03-09 18:05:00,30.1,29.5,29.92,NNW,338,0.0,0.0,98,0.00,,,0.11,Weather View 32 v70,2013-03-10 01:05:00,
2013-03-09 18:10:00,30.2,29.2,29.93,NNW,338,0.0,0.0,96,0.00,,,0.11,Weather View 32 v70,2013-03-10 01:10:00,
2013-03-09 18:15:00,30.3,29.0,29.93,NNW,338,0.0,0.0,95,0.00,,,0.11,Weather View 32 v70,2013-03-10 01:15:00,
2013-03-09 18:20:00,30.4,28.7,29.93,NNW,338,0.0,0.0,94,0.00,,,0.11,Weather View 32 v70,2013-03-10 01:20:00,
2013-03-09 18:25:00,30.5,28.6,29.93,NNW,338,0.0,0.0,93,0.00,,,0.11,Weather View 32 v70,2013-03-10 01:25:00,
2013-03-09 18:30:00,30.6,28.5,29.93,NNW,338,0.0,0.0,92,0.00,,,0.11,Weather View 32 v70,2013-03-10 01:30:00,
2013-03-09 18:35:00,30.6,28.4,29.94,NNW,338,0.0,0.0,92,0.00,,,0.11,Weather View 32 v70,2013-03-10 01:35:00,
2013-03-09 18:40:00,30.6,28.3,29.94,NNW,338,0.0,0.0,91,0.00,,,0.11,Weather View 32 v70,2013-03-10 01:40:00,
2013-03-09 18:45:00,30.6,28.4,29.95,NNW,338,0.0,0.0,92,0.00,,,0.11,Weather View 32 v70,2013-03-10 01:45:00,
2013-03-09 18:50:00,30.5,28.4,29.95,NNW,338,0.0,0.0,92,0.00,,,0.11,Weather View 32 v70,2013-03-10 01:50:00,
2013-03-09 18:55:00,30.2,28.2,29.95,NNW,338,0.0,0.0,92,0.00,,,0.11,Weather View 32 v70,2013-03-10 01:55:00,
2013-03-09 19:00:00,30.0,28.1,29.96,NNW,338,0.0,0.0,93,0.00,,,0.11,Weather View 32 v70,2013-03-10 02:00:00,
2013-03-09 19:05:00,29.7,27.8,29.97,NNW,338,0.0,0.0,93,0.00,,,0.11,Weather View 32 v70,2013-03-10 02:05:00,
2013-03-09 19:10:00,29.6,27.8,29.97,NNW,338,0.0,0.0,93,0.00,,,0.11,Weather View 32 v70,2013-03-10 02:10:00,
2013-03-09 19:15:00,29.4,27.7,29.98,NNW,338,0.0,0.0,93,0.00,,,0.11,Weather View 32 v70,2013-03-10 02:15:00,
2013-03-09 19:20:00,29.3,27.5,29.98,NNW,338,0.0,0.0,93,0.00,,,0.11,Weather View 32 v70,2013-03-10 02:20:00,
2013-03-09 19:25:00,29.2,27.2,29.98,NNW,338,0.0,0.0,92,0.00,,,0.11,Weather View 32 v70,2013-03-10 02:25:00,
2013-03-09 19:30:00,29.2,27.0,29.98,NNW,338,0.0,0.0,91,0.00,,,0.11,Weather View 32 v70,2013-03-10 02:30:00,
2013-03-09 19:35:00,29.2,26.6,29.98,NNW,338,0.0,4.0,90,0.00,,,0.11,Weather View 32 v70,2013-03-10 02:35:00,
2013-03-09 19:40:00,29.3,26.5,29.98,NE,48,0.0,4.0,89,0.00,,,0.11,Weather View 32 v70,2013-03-10 02:40:00,
2013-03-09 19:45:00,29.3,26.2,29.99,NE,48,0.0,4.0,88,0.00,,,0.11,Weather View 32 v70,2013-03-10 02:45:00,
2013-03-09 19:50:00,29.4,26.1,29.99,NNW,339,0.0,4.0,87,0.00,,,0.11,Weather View 32 v70,2013-03-10 02:50:00,
2013-03-09 19:55:00,29.4,26.0,29.99,ENE,62,0.0,5.0,87,0.00,,,0.11,Weather View 32 v70,2013-03-10 02:55:00,
2013-03-09 20:00:00,29.3,25.6,30.00,ENE,62,0.0,5.0,86,0.00,,,0.11,Weather View 32 v70,2013-03-10 03:00:00,
2013-03-09 20:05:00,29.3,25.4,30.00,ENE,62,0.0,5.0,85,0.00,,,0.11,Weather View 32 v70,2013-03-10 03:05:00,
2013-03-09 20:10:00,29.2,25.1,30.00,ENE,62,0.0,5.0,85,0.00,,,0.11,Weather View 32 v70,2013-03-10 03:10:00,
2013-03-09 20:15:00,29.2,24.9,30.00,North,359,0.0,5.0,84,0.00,,,0.11,Weather View 32 v70,2013-03-10 03:15:00,
2013-03-09 20:20:00,29.1,24.5,30.01,North,359,0.0,5.0,83,0.00,,,0.11,Weather View 32 v70,2013-03-10 03:20:00,
2013-03-09 20:25:00,29.1,24.5,30.01,NE,51,0.0,5.0,83,0.00,,,0.11,Weather View 32 v70,2013-03-10 03:25:00,
2013-03-09 20:30:00,28.9,24.3,30.02,NNE,24,0.0,5.0,83,0.00,,,0.11,Weather View 32 v70,2013-03-10 03:30:00,
2013-03-09 20:35:00,28.7,24.1,30.02,East,79,0.0,7.0,83,0.00,,,0.11,Weather View 32 v70,2013-03-10 03:35:00,
2013-03-09 20:40:00,28.6,24.0,30.02,East,79,0.0,7.0,83,0.00,,,0.11,Weather View 32 v70,2013-03-10 03:40:00,
2013-03-09 20:45:00,28.4,23.9,30.03,East,79,0.0,7.0,83,0.00,,,0.11,Weather View 32 v70,2013-03-10 03:45:00,
2013-03-09 20:50:00,28.2,23.8,30.03,East,79,0.0,7.0,83,0.00,,,0.11,Weather View 32 v70,2013-03-10 03:50:00,
2013-03-09 20:55:00,28.0,23.6,30.03,East,79,0.0,7.0,83,0.00,,,0.11,Weather View 32 v70,2013-03-10 03:55:00,
2013-03-09 21:00:00,27.9,23.5,30.03,North,359,0.0,7.0,83,0.00,,,0.11,Weather View 32 v70,2013-03-10 04:00:00,
2013-03-09 21:05:00,27.9,23.4,30.03,ESE,111,0.0,7.0,83,0.00,,,0.11,Weather View 32 v70,2013-03-10 04:05:00,
2013-03-09 21:10:00,27.8,23.2,30.04,ESE,104,0.0,7.0,83,0.00,,,0.11,Weather View 32 v70,2013-03-10 04:10:00,
2013-03-09 21:15:00,27.7,23.1,30.05,NE,41,6.0,7.0,83,0.00,,,0.11,Weather View 32 v70,2013-03-10 04:15:00,
2013-03-09 21:20:00,27.7,23.0,30.05,ENE,65,0.0,12.0,82,0.00,,,0.11,Weather View 32 v70,2013-03-10 04:20:00,
2013-03-09 21:25:00,27.5,22.9,30.06,ENE,65,0.0,12.0,83,0.00,,,0.11,Weather View 32 v70,2013-03-10 04:25:00,
2013-03-09 21:30:00,27.4,22.9,30.06,NNE,25,0.0,12.0,83,0.00,,,0.11,Weather View 32 v70,2013-03-10 04:30:00,
2013-03-09 21:35:00,27.3,22.6,30.06,NNE,25,0.0,12.0,82,0.00,,,0.11,Weather View 32 v70,2013-03-10 04:35:00,
2013-03-09 21:40:00,27.2,22.8,30.06,NNE,25,0.0,12.0,83,0.00,,,0.11,Weather View 32 v70,2013-03-10 04:40:00,
2013-03-09 21:45:00,27.0,22.6,30.07,ENE,58,0.0,12.0,83,0.00,,,0.11,Weather View 32 v70,2013-03-10 04:45:00,
2013-03-09 21:50:00,26.7,22.7,30.07,ENE,58,0.0,12.0,85,0.00,,,0.11,Weather View 32 v70,2013-03-10 04:50:00,
2013-03-09 21:55:00,26.5,22.6,30.07,East,90,0.0,12.0,85,0.00,,,0.11,Weather View 32 v70,2013-03-10 04:55:00,
2013-03-09 22:00:00,26.4,22.6,30.07,East,90,0.0,12.0,85,0.00,,,0.11,Weather View 32 v70,2013-03-10 05:00:00,
2013-03-09 22:05:00,26.2,22.7,30.08,East,90,0.0,12.0,86,0.00,,,0.11,Weather View 32 v70,2013-03-10 05:05:00,
2013-03-09 22:10:00,26.1,22.5,30.08,East,90,0.0,12.0,86,0.00,,,0.11,Weather View 32 v70,2013-03-10 05:10:00,
2013-03-09 22:15:00,26.0,22.3,30.08,East,90,0.0,12.0,86,0.00,,,0.11,Weather View 32 v70,2013-03-10 05:15:00,
2013-03-09 22:20:00,25.8,22.5,30.08,East,90,0.0,5.0,87,0.00,,,0.11,Weather View 32 v70,2013-03-10 05:20:00,
2013-03-09 22:25:00,25.6,22.1,30.08,East,90,0.0,5.0,86,0.00,,,0.11,Weather View 32 v70,2013-03-10 05:25:00,
2013-03-09 22:30:00,25.5,22.0,30.08,East,90,0.0,3.0,86,0.00,,,0.11,Weather View 32 v70,2013-03-10 05:30:00,
2013-03-09 22:35:00,25.3,21.8,30.08,East,90,0.0,0.0,86,0.00,,,0.11,Weather View 32 v70,2013-03-10 05:35:00,
2013-03-09 22:40:00,25.2,21.8,30.08,East,90,0.0,0.0,87,0.00,,,0.11,Weather View 32 v70,2013-03-10 05:40:00,
2013-03-09 22:45:00,25.2,22.0,30.08,East,90,0.0,0.0,87,0.00,,,0.11,Weather View 32 v70,2013-03-10 05:45:00,
2013-03-09 22:50:00,25.2,21.8,30.08,East,90,0.0,0.0,87,0.00,,,0.11,Weather View 32 v70,2013-03-10 05:50:00,
2013-03-09 22:55:00,25.4,22.1,30.08,East,90,0.0,0.0,87,0.00,,,0.11,Weather View 32 v70,2013-03-10 05:55:00,
2013-03-09 23:00:00,25.2,22.1,30.08,East,90,0.0,0.0,88,0.00,,,0.11,Weather View 32 v70,2013-03-10 06:00:00,
2013-03-09 23:05:00,25.2,22.2,30.08,East,90,0.0,0.0,88,0.00,,,0.11,Weather View 32 v70,2013-03-10 06:05:00,
2013-03-09 23:10:00,25.2,22.3,30.08,East,90,0.0,0.0,88,0.00,,,0.11,Weather View 32 v70,2013-03-10 06:10:00,
2013-03-09 23:15:00,25.2,22.3,30.08,East,90,0.0,0.0,88,0.00,,,0.11,Weather View 32 v70,2013-03-10 06:15:00,
2013-03-09 23:20:00,25.2,22.4,30.08,East,90,0.0,0.0,89,0.00,,,0.11,Weather View 32 v70,2013-03-10 06:20:00,
2013-03-09 23:25:00,25.1,22.3,30.08,East,90,0.0,0.0,89,0.00,,,0.11,Weather View 32 v70,2013-03-10 06:25:00,
2013-03-09 23:30:00,24.9,22.1,30.07,East,90,0.0,0.0,89,0.00,,,0.11,Weather View 32 v70,2013-03-10 06:30:00,
2013-03-09 23:35:00,24.9,22.1,30.07,East,90,0.0,0.0,89,0.00,,,0.11,Weather View 32 v70,2013-03-10 06:35:00,
2013-03-09 23:40:00,24.8,21.8,30.08,East,90,0.0,0.0,88,0.00,,,0.11,Weather View 32 v70,2013-03-10 06:40:00,
2013-03-09 23:45:00,24.9,21.8,30.07,East,90,0.0,0.0,88,0.00,,,0.11,Weather View 32 v70,2013-03-10 06:45:00,
2013-03-09 23:50:00,24.8,21.6,30.07,East,90,0.0,0.0,88,0.00,,,0.11,Weather View 32 v70,2013-03-10 06:50:00,
2013-03-09 23:55:00,24.8,21.5,30.07,East,90,0.0,0.0,87,0.00,,,0.11,Weather View 32 v70,2013-03-10 06:55:00,